Location: Drocourt
(49.0571°N, 1.7669°E)
Time: 21:29:50
(UTC+00:00)

S-56A Canister/Altair - Pass Details

Date: 17 April 2024
Orbit: 638 x 2488 km, 38.9° (Epoch: 20 May)

Event Time Altitude Azimuth Distance (km) Brightness Sun altitude
Rises 01:15:33 0° 269° (W) 5,220 11.6 -27.6°
Enters shadow 01:17:04 - 263° (W) 5,032 11.4 -27.5°
Reaches altitude 10° 01:22:52 10° 239° (WSW) 4,668 - -27.1°
Maximum altitude 01:25:55 11° 225° (SW) 4,719 - -26.9°
Drops below altitude 10° 01:29:07 10° 212° (SSW) 4,936 - -26.7°
Sets 01:37:57 0° 183° (S) 6,137 - -26.0°
